Date_and_time,latitude,longitude,wind_speed,RelWindDirFrom,WindDirFrom,air_pressure,air_temperature,relative_humidity,Temp,platform_speed_wrt_ground,air_pressure_at_mean_sea_level,platform_orientation
2019-10-01 00:00,50.6304566666667,-96.980775,15.5,19.1,53,984.79,6.5,92,10.79,0.0,1011.91,360.0
2019-10-01 00:10,50.6304566666667,-96.9807733333333,13.7,16.4,49,985.10,6.5,91,10.79,0.0,1012.24,360.0
2019-10-01 00:20,50.6304566666667,-96.9807733333333,13.5,16.0,46,985.17,6.6,92,10.77,0.0,1012.29,360.0
2019-10-01 00:30,50.63047,-96.98079,12.5,15.5,55,985.18,6.7,91,10.76,0.0,1012.31,360.0
2019-10-01 00:40,50.6304666666667,-96.9807833333333,12.6,15.6,55,985.03,6.7,91,10.76,0.0,1012.15,360.0
2019-10-01 00:50,50.6304666666667,-96.98078,11.1,14.3,53,985.30,6.6,92,10.75,0.0,1012.43,360.0
2019-10-01 01:00,50.6304633333333,-96.9807783333333,9.0,11.6,57,985.60,6.4,94,10.74,0.0,1012.74,0.0
2019-10-01 01:10,50.6304633333333,-96.9807783333333,6.6,9.4,72,985.93,6.5,96,10.75,0.0,1013.08,0.0
2019-10-01 01:20,50.6304616666667,-96.9807783333333,2.1,4.6,93,986.40,6.3,95,10.76,0.0,1013.58,0.0
2019-10-01 01:30,50.6304616666667,-96.9807783333333,2.0,4.7,256,986.63,5.8,97,10.77,0.0,1013.84,0.0
2019-10-01 01:40,50.63046,-96.9807766666667,3.7,6.8,272,986.50,5.5,99,10.78,0.0,1013.72,0.0
2019-10-01 01:50,50.63046,-96.9807766666667,5.4,9.8,279,986.53,5.2,99,10.79,0.0,1013.76,0.0
2019-10-01 02:00,50.6304316666667,-96.9807816666667,7.6,11.2,295,986.51,5.0,99,10.77,0.0,1013.75,166.7
2019-10-01 02:10,50.6304516666667,-96.9807733333333,7.4,10.8,296,986.69,4.7,99,10.76,0.0,1013.94,166.7
2019-10-01 02:20,50.630455,-96.9807766666667,6.7,10.6,304,986.73,4.7,100,10.75,0.0,1013.99,166.7
2019-10-01 02:30,50.630455,-96.9807766666667,8.7,13.7,303,986.71,4.6,100,10.71,0.0,1013.97,166.7
2019-10-01 02:40,50.6304533333333,-96.9807783333333,7.7,12.0,312,986.64,4.5,100,10.71,0.0,1013.91,166.7
2019-10-01 02:50,50.6304516666667,-96.9807766666667,8.1,12.0,331,986.35,4.6,100,10.72,0.0,1013.61,166.7
2019-10-01 03:00,50.63045,-96.9807783333333,7.1,10.9,313,986.52,4.5,100,10.73,0.0,1013.79,270.0
2019-10-01 03:10,50.63045,-96.9807783333333,8.0,12.4,313,986.53,4.5,100,10.74,0.0,1013.81,270.0
2019-10-01 03:20,50.63045,-96.9807783333333,8.1,13.1,310,986.54,4.5,100,10.76,0.0,1013.84,270.0
2019-10-01 03:30,50.6304516666667,-96.98078,8.7,12.5,307,986.51,4.4,99,10.76,0.0,1013.83,270.0
2019-10-01 03:40,50.63045,-96.98078,7.6,12.5,309,986.37,4.3,99,10.75,0.0,1013.71,270.0
2019-10-01 03:50,50.6304533333333,-96.98078,8.7,13.3,298,986.75,4.2,99,10.75,0.0,1014.12,270.0
2019-10-01 04:00,50.6304433333333,-96.9807783333333,7.2,13.0,292,987.17,4.0,99,10.75,0.0,1014.57,360.0
2019-10-01 04:10,50.6304433333333,-96.9807783333333,6.4,12.3,296,987.25,3.9,100,10.71,0.0,1014.66,360.0
2019-10-01 04:20,50.6304416666667,-96.9807783333333,8.3,12.6,300,987.28,3.8,100,10.70,0.0,1014.70,360.0
2019-10-01 04:30,50.6304416666667,-96.98077,7.9,13.6,297,987.36,3.7,99,10.69,0.0,1014.79,360.0
2019-10-01 04:40,50.6304466666667,-96.9807783333333,7.2,11.5,309,987.22,3.5,99,10.70,0.0,1014.65,360.0
2019-10-01 04:50,50.6304466666667,-96.98078,8.4,13.0,311,987.06,3.4,99,10.70,0.0,1014.49,360.0
2019-10-01 05:00,50.630445,-96.9807816666667,8.3,11.8,308,987.15,3.2,99,10.69,0.0,1014.60,38.0
2019-10-01 05:10,50.6304433333333,-96.9807816666667,8.3,12.3,299,987.32,3.0,99,10.67,0.0,1014.78,38.0
2019-10-01 05:20,50.6304433333333,-96.98078,8.5,12.9,298,987.39,2.7,99,10.67,0.0,1014.87,38.0
2019-10-01 05:30,50.630445,-96.98078,8.4,11.9,289,987.47,2.4,99,10.65,0.0,1014.98,38.0
2019-10-01 05:40,50.630435,-96.9807416666667,7.7,12.1,289,987.49,2.2,99,10.65,0.0,1015.02,38.0
2019-10-01 05:50,50.6304633333333,-96.9807833333333,7.9,12.7,282,987.65,2.0,99,10.62,0.0,1015.21,38.0
2019-10-01 06:00,50.630455,-96.98078,7.3,12.7,279,987.76,1.9,99,10.61,0.0,1015.33,90.0
2019-10-01 06:10,50.6304533333333,-96.98078,8.4,13.1,266,987.86,1.7,99,10.61,0.0,1015.45,90.0
2019-10-01 06:20,50.6304466666667,-96.980785,8.4,12.9,277,987.97,1.5,99,10.61,0.0,1015.57,90.0
2019-10-01 06:30,50.6304466666667,-96.9807783333333,9.0,14.1,267,988.12,1.4,99,10.59,0.0,1015.74,90.0
2019-10-01 06:40,50.630445,-96.98078,9.2,14.4,273,988.06,1.3,100,10.56,0.0,1015.69,90.0
2019-10-01 06:50,50.630445,-96.9807783333333,8.6,14.9,282,988.05,1.2,100,10.54,0.0,1015.69,90.0
2019-10-01 07:00,50.630445,-96.980775,9.1,14.3,281,988.15,1.0,100,10.53,0.0,1015.81,90.0
2019-10-01 07:10,50.6304483333333,-96.980805,8.8,15.0,280,988.20,1.0,100,10.51,0.0,1015.88,90.0
2019-10-01 07:20,50.6304433333333,-96.9807766666667,8.5,14.4,268,988.40,1.0,99,10.50,0.0,1016.10,90.0
2019-10-01 07:30,50.6304383333333,-96.980775,6.6,10.5,276,988.48,1.0,99,10.49,0.0,1016.20,90.0
2019-10-01 07:40,50.6304416666667,-96.9807766666667,8.8,14.0,283,988.39,0.9,99,10.47,0.0,1016.12,90.0
2019-10-01 07:50,50.6304683333333,-96.9808233333333,9.2,14.2,287,988.28,0.8,99,10.48,0.0,1016.01,90.0
2019-10-01 08:00,50.63045,-96.9807816666667,8.8,13.6,289,988.29,0.8,99,10.49,0.0,1016.04,360.0
2019-10-01 08:10,50.6304533333333,-96.9807733333333,8.6,13.1,292,988.22,0.8,99,10.50,0.0,1015.97,360.0
2019-10-01 08:20,50.6304483333333,-96.980775,9.2,16.5,292,988.29,0.8,99,10.53,0.0,1016.05,360.0
2019-10-01 08:30,50.630445,-96.9807733333333,7.7,13.2,296,988.38,0.9,99,10.55,0.0,1016.14,360.0
2019-10-01 08:40,50.6304416666667,-96.9807733333333,9.3,16.8,299,988.34,1.0,99,10.56,0.0,1016.11,360.0
2019-10-01 08:50,50.6304433333333,-96.9807716666667,9.8,16.6,298,988.32,1.0,99,10.55,0.0,1016.09,360.0
2019-10-01 09:00,50.6304516666667,-96.9807716666667,8.8,14.9,300,988.33,1.0,99,10.57,0.0,1016.10,90.0
2019-10-01 09:10,50.6304533333333,-96.9807666666667,9.8,17.1,302,988.35,1.0,99,10.57,0.0,1016.12,90.0
2019-10-01 09:20,50.63045,-96.9807683333333,9.7,15.2,304,988.47,1.0,99,10.57,0.0,1016.24,90.0
2019-10-01 09:30,50.6304483333333,-96.9807666666667,9.2,15.7,297,988.82,1.0,99,10.58,0.0,1016.61,90.0
2019-10-01 09:40,50.6304483333333,-96.9807716666667,6.5,11.2,290,989.22,1.0,99,10.56,0.0,1017.03,90.0
2019-10-01 09:50,50.6304466666667,-96.9807716666667,6.8,10.9,289,989.54,1.0,99,10.54,0.0,1017.35,90.0
2019-10-01 10:00,50.6304483333333,-96.9807716666667,7.0,11.8,292,989.90,1.0,99,10.53,0.0,1017.72,360.0
2019-10-01 10:10,50.63045,-96.9807716666667,5.9,12.1,297,990.24,1.0,99,10.48,0.0,1018.08,360.0
2019-10-01 10:20,50.63045,-96.98077,6.7,10.9,300,990.34,1.0,99,10.43,0.0,1018.17,360.0
2019-10-01 10:30,50.63045,-96.98077,6.5,10.5,300,990.56,1.0,99,10.42,0.0,1018.40,360.0
2019-10-01 10:40,50.63045,-96.9807716666667,5.7,9.9,295,990.84,1.0,99,10.42,0.0,1018.68,360.0
2019-10-01 10:50,50.6304516666667,-96.9807716666667,6.5,10.2,288,991.13,1.0,100,10.42,0.0,1018.98,360.0
2019-10-01 11:00,50.6304516666667,-96.9807716666667,7.1,10.4,290,991.31,0.9,100,10.38,0.0,1019.17,90.0
2019-10-01 11:10,50.6304483333333,-96.9807716666667,5.7,8.8,282,991.62,0.9,100,10.33,0.0,1019.48,90.0
2019-10-01 11:20,50.6304433333333,-96.9807683333333,6.6,10.2,279,991.89,0.9,100,10.31,0.0,1019.76,90.0
2019-10-01 11:30,50.6304333333333,-96.9807366666667,7.6,13.1,282,992.04,0.8,100,10.31,0.0,1019.93,90.0
2019-10-01 11:40,50.6304366666667,-96.9807566666667,7.5,10.7,284,992.31,0.7,100,10.31,0.0,1020.21,90.0
2019-10-01 11:50,50.63044,-96.9807633333333,5.9,11.7,281,992.63,0.7,100,10.29,0.0,1020.54,90.0
2019-10-01 12:00,50.6304433333333,-96.9807666666667,6.1,12.1,280,992.81,0.6,100,10.30,0.0,1020.73,360.0
2019-10-01 12:10,50.630445,-96.98077,6.1,11.2,274,992.84,0.6,100,10.27,0.0,1020.77,360.0
2019-10-01 12:20,50.6304466666667,-96.98077,7.0,11.5,286,992.89,0.4,100,10.25,0.0,1020.82,360.0
2019-10-01 12:30,50.6304716666667,-96.9807683333333,7.7,11.0,296,992.84,0.4,100,10.25,0.0,1020.77,360.0
2019-10-01 12:40,50.630455,-96.9807683333333,9.5,14.8,301,992.68,0.4,100,10.25,0.0,1020.61,360.0
2019-10-01 12:50,50.630455,-96.9807716666667,8.9,13.3,306,992.54,0.4,100,10.27,0.0,1020.47,360.0
2019-10-01 13:00,50.630485,-96.9807833333333,7.9,12.1,300,992.75,0.4,100,10.29,0.0,1020.68,347.8
2019-10-01 13:10,50.6304583333333,-96.9807616666667,6.7,10.9,294,993.03,0.5,100,10.32,0.0,1020.96,347.8
2019-10-01 13:20,50.6304566666667,-96.980765,8.0,12.9,304,992.88,0.6,100,10.32,0.0,1020.81,347.8
2019-10-01 13:30,50.6304333333333,-96.9807916666667,7.6,12.5,305,992.89,0.7,100,10.34,0.0,1020.82,347.8
2019-10-01 13:40,50.6279283333333,-96.964455,5.3,12.0,330,993.24,1.1,100,10.41,3.8,1021.16,347.8
2019-10-01 13:50,50.6249716666667,-96.9166233333333,7.0,10.2,6,993.43,1.2,100,11.15,11.0,1021.35,347.8
2019-10-01 14:00,50.6189183333333,-96.8738683333333,6.9,12.3,348,993.59,1.7,100,11.78,10.0,1021.50,99.6
2019-10-01 14:10,50.58966,-96.8602,8.4,14.9,261,993.43,2.8,100,12.21,11.0,1021.28,99.6
2019-10-01 14:20,50.5593533333333,-96.8507233333333,10.3,15.8,269,993.44,2.9,99,12.30,11.1,1021.29,99.6
2019-10-01 14:30,50.54465,-96.8457383333333,12.1,16.5,293,993.40,4.6,92,12.06,5.4,1021.17,99.6
2019-10-01 14:40,50.5372966666667,-96.8422833333333,12.6,17.2,296,993.68,6.2,83,11.98,2.8,1021.37,99.6
2019-10-01 14:50,50.530345,-96.8368683333333,13.1,18.0,296,993.91,7.2,76,11.82,2.8,1021.55,99.6
2019-10-01 15:00,50.5237683333333,-96.8290566666667,11.7,15.0,308,993.97,4.8,90,11.57,3.0,1021.73,137.9
2019-10-01 15:10,50.51704,-96.8329516666667,13.5,17.7,303,993.95,3.3,97,11.12,2.6,1021.78,137.9
2019-10-01 15:20,50.5170583333333,-96.8328116666667,13.6,16.5,311,994.24,2.9,95,10.77,0.0,1022.10,137.9
2019-10-01 15:30,50.51702,-96.8329066666667,13.1,16.3,316,994.46,3.0,93,10.68,0.0,1022.29,137.9
2019-10-01 15:40,50.5170233333333,-96.83287,13.0,16.3,321,994.53,3.0,92,10.61,0.0,1022.36,137.9
2019-10-01 15:50,50.5156683333333,-96.826815,12.1,16.7,324,994.68,3.0,93,10.57,1.5,1022.49,137.9
2019-10-01 16:00,50.4934,-96.80652,5.1,15.5,326,994.95,3.3,91,10.89,9.3,1022.69,141.0
2019-10-01 16:10,50.4662583333333,-96.81841,11.6,16.5,300,994.80,3.8,90,10.90,10.1,1022.52,141.0
2019-10-01 16:20,50.4580766666667,-96.820545,12.2,16.8,319,994.82,5.5,79,11.05,3.0,1022.36,141.0
2019-10-01 16:30,50.4507016666667,-96.8231383333333,12.6,17.6,320,994.68,6.1,78,11.29,2.7,1022.11,141.0
2019-10-01 16:40,50.4436,-96.826665,13.3,19.1,322,994.71,5.9,80,11.30,2.7,1022.10,141.0
2019-10-01 16:50,50.4332033333333,-96.83317,12.9,17.0,324,994.79,5.3,84,11.09,4.0,1022.34,141.0
2019-10-01 17:00,50.4331216666667,-96.8330583333333,14.4,18.2,338,994.56,4.3,85,11.11,0.0,1022.22,172.0
2019-10-01 17:10,50.4331033333333,-96.83312,15.1,19.8,335,994.63,4.3,84,11.11,0.0,1022.31,172.0
2019-10-01 17:20,50.4331083333333,-96.8331916666667,14.3,19.3,338,994.73,4.3,83,11.10,0.0,1022.41,172.0
2019-10-01 17:30,50.43326,-96.8330833333333,15.0,19.0,339,995.15,4.3,81,11.12,0.1,1022.85,172.0
2019-10-01 17:40,50.43306,-96.833035,14.6,19.6,342,995.32,4.4,82,11.14,0.1,1023.01,172.0
2019-10-01 17:50,50.4330516666667,-96.8330783333333,14.3,18.6,340,994.95,4.5,82,11.14,0.0,1022.61,172.0
2019-10-01 18:00,50.433045,-96.83303,14.3,18.5,341,995.00,4.5,82,11.14,0.0,1022.64,181.5
2019-10-01 18:10,50.4330466666667,-96.8330666666667,14.3,18.6,341,995.04,4.7,81,11.15,0.0,1022.58,181.5
2019-10-01 18:20,50.4330383333333,-96.8330333333333,13.9,17.6,340,995.12,4.8,81,11.17,0.0,1022.63,181.5
2019-10-01 18:30,50.4330416666667,-96.833055,13.8,17.4,351,995.14,4.9,80,11.20,0.0,1022.66,181.5
2019-10-01 18:40,50.4330366666667,-96.8329483333333,13.4,18.1,340,995.35,4.9,81,11.22,0.0,1022.91,181.5
2019-10-01 18:50,50.433025,-96.8330916666667,14.0,17.5,348,995.34,5.1,79,11.20,0.0,1022.94,181.5
2019-10-01 19:00,50.4330266666667,-96.8331216666667,12.4,17.1,346,995.45,5.1,80,11.18,0.0,1023.05,195.7
2019-10-01 19:10,50.4330333333333,-96.8329716666667,13.8,19.1,335,995.29,5.1,80,11.17,0.0,1022.88,195.7
2019-10-01 19:20,50.43302,-96.8329866666667,15.0,18.5,341,995.16,5.3,78,11.17,0.0,1022.74,195.7
2019-10-01 19:30,50.433015,-96.8330333333333,13.4,17.6,342,995.28,5.3,80,11.19,0.0,1022.86,195.7
2019-10-01 19:40,50.43302,-96.8330666666667,13.5,16.9,341,995.28,5.3,80,11.19,0.0,1022.85,195.7
2019-10-01 19:50,50.433015,-96.833175,14.1,19.3,348,995.38,5.3,80,11.18,0.0,1022.95,195.7
2019-10-01 20:00,50.4330266666667,-96.8329966666667,11.6,16.7,341,995.67,5.3,79,11.16,0.0,1023.24,159.1
2019-10-01 20:10,50.43312,-96.8330816666667,13.0,17.6,338,995.87,5.6,77,11.15,0.0,1023.43,159.1
2019-10-01 20:20,50.436255,-96.833525,15.2,23.1,338,995.53,5.6,78,11.14,1.1,1023.07,159.1
2019-10-01 20:30,50.4652816666667,-96.8359533333333,21.6,25.6,349,994.80,5.7,76,11.16,10.5,1022.32,159.1
2019-10-01 20:40,50.494655,-96.8429266666667,22.7,27.4,347,994.65,5.8,77,11.02,10.7,1022.15,159.1
2019-10-01 20:50,50.5237433333333,-96.8497966666667,22.0,26.5,350,994.73,5.8,77,10.70,10.6,1022.23,159.1
2019-10-01 21:00,50.55341,-96.85674,23.3,27.5,348,994.63,5.8,79,11.20,10.8,1022.12,352.9
2019-10-01 21:10,50.582955,-96.8643683333333,23.1,28.0,350,994.90,6.0,76,11.91,10.8,1022.39,352.9
2019-10-01 21:20,50.6077083333333,-96.8711316666667,21.0,26.4,349,995.11,6.0,78,12.23,9.0,1022.60,352.9
2019-10-01 21:30,50.627355,-96.8976683333333,19.3,26.6,344,995.48,5.9,77,12.24,9.3,1022.98,352.9
2019-10-01 21:40,50.6311183333333,-96.938485,17.7,24.7,332,995.82,6.0,77,12.03,9.4,1023.33,352.9
2019-10-01 21:50,50.633205,-96.9526566666667,14.3,21.4,331,996.06,5.8,79,11.93,3.3,1023.59,352.9
2019-10-01 22:00,50.6331883333333,-96.952905,9.6,14.5,330,996.26,5.6,79,11.93,0.1,1023.79,339.2
2019-10-01 22:10,50.6331716666667,-96.9528716666667,10.1,13.8,338,996.19,5.6,77,11.93,0.0,1023.72,339.2
2019-10-01 22:20,50.631845,-96.945795,9.3,13.1,355,996.42,5.6,78,11.96,1.7,1023.95,339.2
2019-10-01 22:30,50.62932,-96.9335416666667,9.9,13.3,5,996.45,5.6,76,11.97,2.9,1023.98,339.2
2019-10-01 22:40,50.6277016666667,-96.9203533333333,10.7,13.4,354,996.43,5.5,76,11.88,3.1,1023.96,339.2
2019-10-01 22:50,50.626635,-96.9076566666667,11.6,16.6,8,996.44,5.6,76,11.80,2.9,1023.97,339.2
2019-10-01 23:00,50.6276066666667,-96.9519716666667,16.6,23.1,320,996.12,5.8,74,11.88,10.1,1023.61,338.8
2019-10-01 23:10,50.62985,-96.980995,13.9,20.6,310,996.36,5.5,78,11.59,6.7,1023.88,338.8
2019-10-01 23:20,50.6304383333333,-96.980755,7.3,11.8,335,996.71,5.4,79,10.72,0.2,1024.25,338.8
2019-10-01 23:30,50.6304433333333,-96.9807533333333,6.7,9.7,312,996.78,5.2,79,10.44,0.0,1024.32,338.8
2019-10-01 23:40,50.6304166666667,-96.9807683333333,7.1,10.8,317,996.85,5.2,80,10.39,0.0,1024.41,338.8
